Theta_e
296 296 296 297 298 299 299 299 302 313 313 311 311 310 310 309 308 307 305 302 303 301
295 295 295 296 296 296 298 299 301 305 311 311 311 310 310 308 306 306 304 303 302 299
294 295 295 295 294 295 295 297 298 300 302 307 309 310 309 306 305 304 302 302 301 299
294 295 294 293 293 293 293 295 296 297 298 300 303 306 305 304 303 302 300 301 300 298
293 293 292 292 292 292 292 292 293 295 296 297 298 301 302 301 301 301 299 298 298 297
291 291 290 290 290 291 291 291 292 293 293 294 294 296 297 300 299 299 298 297 297 295
289 289 289 288 288 288 289 288 288 288 289 290 290 291 292 293 293 293 292 291 292 291
286 287 287 286 285 285 285 284 284 284 284 285 287 288 290 290 289 288 286 286 286 287
282 283 285 284 282 282 282 282 282 282 283 283 284 286 289 286 285 284 283 282 281 281
282 282 281 281 281 280 280 280 280 280 281 282 284 288 288 286 283 283 282 281 281 281
281 281 280 280 280 279 279 279 279 279 280 281 283 288 286 285 282 281 281 281 280 280
281 280 280 279 278 278 278 278 278 279 279 280 282 286 286 283 280 280 279 280 279 280
281 281 279 279 278 278 278 279 279 280 279 278 281 286 286 282 280 278 278 277 278 280
281 281 280 279 278 278 278 279 278 279 278 279 280 282 286 284 280 278 277 277 276 279
Wind_Speed
5 3 4 4 3 3 4 4 4 10 10 11 12 11 11 9 6 7 6 7 5 4
5 6 5 5 4 3 4 3 4 4 10 11 12 12 10 8 8 8 6 6 6 5
5 5 5 5 6 6 4 4 4 5 6 8 11 11 10 8 7 8 4 5 8 6
5 5 5 6 5 5 5 4 5 5 6 5 7 8 9 8 9 8 7 6 7 7
5 4 5 5 4 4 5 5 4 5 5 6 5 6 10 9 8 10 9 7 8 8
4 5 4 5 4 5 5 5 6 6 5 5 5 6 5 8 9 7 7 8 8 7
5 5 4 4 4 4 4 5 5 5 5 5 5 6 6 7 7 7 6 6 6 7
4 5 5 5 5 4 5 5 5 6 6 5 4 3 6 7 7 8 6 5 5 5
6 6 5 5 6 5 4 5 6 5 6 6 4 7 8 7 7 7 7 7 5 6
7 6 6 6 6 5 5 5 6 5 5 6 5 9 10 10 5 6 6 6 6 5
8 8 7 6 7 6 4 5 5 5 5 5 4 11 10 10 6 6 6 6 6 6
10 9 8 8 7 5 5 4 3 4 6 6 4 8 12 9 6 5 5 5 5 7
10 10 10 8 8 4 4 4 5 5 5 5 6 10 10 8 5 6 4 4 4 6
11 11 9 8 5 6 6 6 5 5 5 6 6 8 13 13 5 5 4 3 3 3
Wind_Direction
45 55 43 49 56 47 45 25 360 139 143 147 154 158 158 153 149 145 136 143 134 117
48 57 62 61 60 75 71 62 45 78 139 148 154 154 158 147 148 141 136 144 129 127
42 55 65 62 59 50 58 63 71 80 94 136 149 150 148 146 132 137 134 137 133 127
63 44 63 72 59 64 62 54 69 73 95 96 124 138 137 138 141 138 136 127 135 128
92 70 61 62 63 65 84 77 81 94 97 102 108 126 139 139 147 151 148 132 124 140
112 104 91 79 60 49 61 62 70 77 88 98 94 106 107 142 143 138 139 141 150 149
137 126 115 101 83 77 71 79 75 70 82 89 103 106 111 118 119 116 125 134 142 153
141 122 118 103 91 80 81 86 89 94 76 72 76 98 125 124 125 124 126 123 130 149
151 142 138 128 125 116 104 98 103 103 111 107 99 111 113 117 123 127 138 132 118 115
157 155 153 143 135 137 138 122 115 110 112 115 110 119 125 123 120 131 129 130 130 120
163 162 155 156 151 146 142 142 136 132 128 123 129 130 130 123 115 114 112 125 141 139
171 163 163 166 165 155 146 148 148 144 145 141 136 146 142 129 116 116 123 135 146 142
171 169 173 170 164 154 146 151 147 144 163 157 153 160 161 142 131 128 135 108 107 144
174 175 170 159 153 151 149 137 160 160 165 169 169 174 167 167 148 144 143 152 152 151